1295740831529,90.7020
1295740891529,90.9779
1295740951529,90.6792
1295741011529,90.7466
1295741071529,90.6547
1295741131529,90.9240
1295741191529,90.7232
1295741251529,90.8897
1295741311529,90.6614
1295741371529,90.9593
1295741431529,90.6641
1295741491529,90.6365
1295741551529,90.7571
1295741611529,90.9152
1295741671529,90.6154
1295741731529,90.5543
1295741791529,90.6530
1295741851529,90.6420
1295741911529,90.7346
1295741971529,90.4909
1295742031529,90.8465
1295742091529,90.8883
1295742151529,90.8053
1295742211529,90.7949
1295742271529,90.7388
1295742331529,90.5507
1295742391529,90.8120
1295742451529,90.6590
1295742511529,90.3801
1295742571529,90.6649
1295742631529,90.5533
1295742691529,90.4732
1295742751529,90.5377
1295742811529,90.4702
1295742871529,90.6062
1295742931529,90.6807
1295742991529,90.4875
1295743051529,90.4075
1295743111529,90.4983
1295743171529,90.4937
1295743231529,90.4217
1295743291529,90.4322
1295743351529,90.5616
1295743411529,90.6827
1295743471529,90.4686
1295743531529,90.4555
1295743591529,90.6542
1295743651529,90.6787
1295743711529,90.4685
1295743771529,90.4292
1295743831529,90.4679
1295743891529,90.4110
1295743951529,90.3069
1295744011529,90.4340
1295744071529,90.3668
1295744131529,90.2957
1295744191529,90.7364
1295744251529,90.5881
1295744311529,90.5008
1295744371529,90.6018
1295744431540,90.5375
1295744491540,90.4017
1295744551540,90.5164
1295744611540,90.3588
1295744671540,90.5829
1295744731540,90.2027
1295744791540,90.3327
1295744851540,90.4397
1295744911540,90.2358
1295744971540,90.2675
1295745031540,90.2289
1295745091540,90.2759
1295745151540,90.4714
1295745211540,90.7279
1295745271540,90.3574
1295745331540,90.1853
1295745391540,90.2209
1295745451540,90.0208
1295745511540,90.2612
1295745571540,90.1150
1295745631540,90.0493
1295745691540,90.2532
1295745751540,89.9781
1295745811540,90.0722
1295745871540,90.2586
1295745931540,89.9216
1295745991540,90.3028
1295746051540,90.1242
1295746111540,90.2012
1295746171540,89.8832
1295746231540,89.9134
1295746291540,90.1183
1295746351540,90.2455
1295746411540,90.2031
1295746471540,90.0477
1295746531540,89.9760
1295746591540,89.9484
1295746651540,89.9780
1295746711540,90.0211
1295746771540,89.9393
1295746831540,89.9011
1295746891540,89.7997
1295746951540,89.9887
1295747011540,90.0233
1295747071540,89.9071
1295747131540,89.7033
1295747191540,89.7401
1295747251540,89.5976
1295747311540,89.7931
1295747371540,89.8515
1295747431540,89.6201
1295747491540,89.7655
1295747551540,89.8090
1295747611540,89.6445
1295747671540,89.5983
1295747731540,89.6548
1295747791540,89.6684
1295747851540,89.7144
1295747911540,89.6984
1295747971540,89.5804
1295748031551,89.7519
1295748091551,89.6384
1295748151551,89.6250
1295748211551,89.7104
1295748271551,89.5321
1295748331551,89.6579
1295748391551,89.5693
1295748451551,89.6757
1295748511551,89.4546
1295748571551,89.6697
1295748631551,89.5741
1295748691551,89.6588
1295748751551,89.6302
1295748811551,89.3504
1295748871551,89.4558
1295748931551,89.5866
1295748991551,89.6733
1295749051551,89.7686
1295749111551,89.5601
1295749171551,89.5363
1295749231551,89.6025
1295749291551,89.4389
1295749351551,89.4169
1295749411551,89.2120
1295749471551,89.6040
1295749531551,89.5807
1295749591551,89.4784
1295749651551,89.4497
1295749711551,89.3853
1295749771551,89.3265
1295749831551,89.5999
1295749891551,89.5542
1295749951551,89.3719
1295750011551,89.4903
1295750071551,89.3846
1295750131551,89.4250
1295750191551,89.2334
1295750251551,89.4018
1295750311551,89.3733
1295750371551,89.1831
1295750431551,89.3624
1295750491551,89.1889
1295750551551,89.1167
1295750611551,89.3306
1295750671551,89.3464
1295750731551,89.1651
1295750791551,89.2006
1295750851551,89.1099
1295750911551,89.2584
1295750971551,89.2439
1295751031551,89.0606
1295751091551,89.4512
1295751151551,89.0768
1295751211551,89.2053
1295751271551,89.2070
1295751331551,89.1280
1295751391551,89.2964
1295751451551,89.1042
1295751511551,89.2953
1295751571551,89.3299
1295751631562,89.2849
1295751691562,89.1381
1295751751562,89.2480
1295751811562,89.2878
1295751871562,89.2328
1295751931562,89.0470
1295751991562,89.4352
1295752051562,89.1258
1295752111562,89.1521
1295752171562,89.1791
1295752231562,89.0985
1295752291562,89.1019
1295752351562,88.9980
1295752411562,89.1789
1295752471562,89.3581
1295752531562,89.1717
1295752591562,89.0366
1295752651562,89.0919
1295752711562,88.9016
1295752771562,89.0450
1295752831562,89.2575
1295752891562,89.1518
1295752951562,89.3566
1295753011562,89.0802
1295753071562,89.1122
1295753131562,89.3569
1295753191562,89.0521
1295753251562,89.0652
1295753311562,89.1273
1295753371562,89.2452
1295753431562,89.1423
1295753491562,89.2107
1295753551562,89.3553
1295753611562,89.4148
1295753671562,89.2015
1295753731562,89.1697
1295753791562,89.0734
1295753851562,89.2140
1295753911562,89.2495
1295753971562,89.0650
1295754031562,89.1277
1295754091562,89.3068
1295754151562,89.0839
1295754211562,89.2162
1295754271562,89.2775
1295754331562,89.2211
1295754391562,89.2775
1295754451562,89.3226
1295754511562,89.1518
1295754571562,89.1622
1295754631562,89.2688
1295754691562,89.3469
1295754751562,89.2915
1295754811562,89.2931
1295754871562,89.3183
1295754931562,89.2635
1295754991562,89.3023
1295755051562,89.3856
1295755111562,89.3111
1295755171562,89.4076
1295755231573,89.3242
1295755291573,89.4843
1295755351573,89.4334
1295755411573,89.3537
1295755471573,89.5339
1295755531573,89.2943
1295755591573,89.4282
1295755651573,89.3729
1295755711573,89.3785
1295755771573,89.6915
1295755831573,89.5382
1295755891573,89.4588
1295755951573,89.4795
1295756011573,89.3663
1295756071573,89.5104
1295756131573,89.7094
1295756191573,89.6956
1295756251573,89.5586
1295756311573,89.6316
1295756371573,89.5608
1295756431573,89.4269
1295756491573,89.7296
1295756551573,89.4435
1295756611573,89.4778
1295756671573,89.4355
1295756731573,89.4840
1295756791573,89.5642
1295756851573,89.3353
1295756911573,89.2946
1295756971573,89.5741
1295757031573,89.3517
1295757091573,89.4810
1295757151573,89.4115
1295757211573,89.5389
1295757271573,89.5361
1295757331573,89.3144
1295757391573,89.3575
1295757451573,89.3099
1295757511573,89.5090
1295757571573,89.5359
1295757631573,89.3676
1295757691573,89.3749
1295757751573,89.6804
1295757811573,89.5913
1295757871573,89.5030
1295757931573,89.5639
1295757991573,89.5573
1295758051573,89.5160
1295758111573,89.3701
1295758171573,89.3215
1295758231573,89.4064
1295758291573,89.5768
1295758351573,89.2823
1295758411573,89.3670
1295758471573,89.7112
1295758531573,89.7922
1295758591573,89.4930
1295758651573,89.6724
1295758711573,89.5455
1295758771573,89.5508
1295758831584,89.7006
1295758891584,89.5601
1295758951584,89.4180
1295759011584,89.8313
1295759071584,89.7285
1295759131584,89.3352
1295759191584,89.6338
1295759251584,89.6197
1295759311584,89.5391
1295759371584,89.5453
1295759431584,89.4228
1295759491584,89.3926
1295759551584,89.7186
1295759611584,89.7066
1295759671584,89.3807
1295759731584,89.5705
1295759791584,89.3890
1295759851584,89.4664
1295759911584,89.4871
1295759971584,89.5336
1295760031584,89.4537
1295760091584,89.4928
1295760151584,89.5223
1295760211584,89.4461
1295760271584,89.6873
1295760331584,89.5811
1295760391584,89.3824
1295760451584,89.7494
1295760511584,89.3737
1295760571584,89.5160
1295760631584,89.6765
1295760691584,89.5951
1295760751584,89.6200
1295760811584,89.7825
1295760871584,89.5158
1295760931584,89.5343
1295760991584,89.7109
1295761051584,89.4665
1295761111584,89.3466
1295761171584,89.5505
1295761231584,89.6448
1295761291584,89.4172
1295761351584,89.6837
1295761411584,89.6313
1295761471584,89.7099
1295761531584,89.6413
1295761591584,89.3966
1295761651584,89.7333
1295761711584,89.6238
1295761771584,89.5760
1295761831584,89.6983
1295761891584,89.6096
1295761951584,89.6800
1295762011584,89.5729
1295762071584,89.7716
1295762131584,89.6667
1295762191584,89.7982
1295762251584,89.6459
1295762311584,89.6061
1295762371584,89.4821
1295762431595,89.5877
1295762491595,89.7161
1295762551595,89.7504
1295762611595,89.6404
1295762671595,89.5970
1295762731595,89.5306
1295762791595,89.3498
1295762851595,89.6092
1295762911595,89.5141
1295762971595,89.6838
1295763031595,89.4131
1295763091595,89.7762
1295763151595,89.3955
1295763211595,89.4625
1295763271595,89.3062
1295763331595,89.4845
1295763391595,89.3768
1295763451595,89.3358
1295763511595,89.4409
1295763571595,89.3562
1295763631595,89.4336
1295763691595,89.4232
1295763751595,89.4308
1295763811595,89.3732
1295763871595,89.3513
1295763931595,89.4487
1295763991595,89.2911
1295764051595,89.3998
1295764111595,89.6605
1295764171595,89.6864
1295764231595,89.4091
1295764291595,89.4775
1295764351595,89.4316
1295764411595,89.3610
1295764471595,89.4713
1295764531595,89.3856
1295764591595,89.4649
1295764651595,89.5735
1295764711595,89.3178
1295764771595,89.4747
1295764831595,89.5413
1295764891595,89.6408
1295764951595,89.5090
1295765011595,89.5297
1295765071595,89.4495
1295765131595,89.4737
1295765191595,89.7293
1295765251595,89.4639
1295765311595,89.4637
1295765371595,89.3265
1295765431595,89.5556
1295765491595,89.5223
1295765551595,89.5542
1295765611595,89.3790
1295765671595,89.3482
1295765731595,89.4508
1295765791595,89.4716
1295765851595,89.2973
1295765911595,89.3655
1295765971595,89.5222
1295766031607,89.4178
1295766091607,89.4863
1295766151607,89.2785
1295766211607,89.4168
1295766271607,89.4204
1295766331607,89.1776
1295766391607,89.2507
1295766451607,89.4818
1295766511607,89.2249
1295766571607,89.3722
1295766631607,89.0628
1295766691607,89.3203
1295766751607,89.2642
1295766811607,89.1940
1295766871607,89.3940
1295766931607,89.0946
1295766991607,89.1708
1295767051607,89.1890
1295767111607,89.0228
1295767171607,89.3318
1295767231607,89.2813
1295767291607,89.0557
1295767351607,89.3828
1295767411607,89.1172
1295767471607,89.1709
1295767531607,89.2171
1295767591607,89.3183
1295767651607,89.3165
1295767711607,89.1483
1295767771607,89.0074
1295767831607,88.9866
1295767891607,89.1664
1295767951607,89.2223
1295768011607,89.2393
1295768071607,89.1565
1295768131607,88.9870
1295768191607,89.0744
1295768251607,89.1573
1295768311607,89.3605
1295768371607,89.1797
1295768431607,89.0154
1295768491607,89.0150
1295768551607,89.1675
1295768611607,89.1651
1295768671607,88.9930
1295768731607,89.1732
1295768791607,88.9659
1295768851607,89.0737
1295768911607,88.8296
1295768971607,88.9636
1295769031607,89.0829
1295769091607,88.8196
1295769151607,88.9509
1295769211607,88.9402
1295769271607,88.9175
1295769331607,88.8159
1295769391607,88.7636
1295769451607,88.7304
1295769511607,88.7488
1295769571607,88.9732
1295769631619,88.8470
1295769691619,88.8425
1295769751619,88.8582
1295769811619,88.9648
1295769871619,88.7263
1295769931619,88.9671
1295769991619,88.7776
1295770051619,88.9169
1295770111619,89.0132
1295770171619,88.6863
1295770231619,88.9889
1295770291619,88.8467
1295770351619,88.6593
1295770411619,88.7842
1295770471619,88.7258
1295770531619,88.5838
1295770591619,88.6245
1295770651619,88.6695
1295770711619,88.8231
1295770771619,88.5739
1295770831619,88.3479
1295770891619,88.5863
1295770951619,88.7698
1295771011619,88.5413
1295771071619,88.6309
1295771131619,88.4866
1295771191619,88.5880
1295771251619,88.4232
1295771311619,88.4129
1295771371619,88.5617
1295771431619,88.4214
1295771491619,88.5252
1295771551619,88.5673
1295771611619,88.5624
1295771671619,88.5572
1295771731619,88.5914
1295771791619,88.2189
1295771851619,88.4626
1295771911619,88.2490
1295771971619,88.5365
1295772031619,88.2077
1295772091619,88.4416
1295772151619,88.3550
1295772211619,88.5059
1295772271619,88.4998
1295772331619,88.4033
1295772391619,88.5245
1295772451619,88.3781
1295772511619,88.1807
1295772571619,88.4432
1295772631619,88.4245
1295772691619,88.4508
1295772751619,88.3823
1295772811619,88.3989
1295772871619,88.4380
1295772931619,88.3965
1295772991619,88.4489
1295773051619,88.4077
1295773111619,88.2299
1295773171619,88.3175
1295773231631,88.2725
1295773291631,88.2155
1295773351631,88.2466
1295773411631,88.4107
1295773471631,88.1637
1295773531631,88.3390
1295773591631,88.0984
1295773651631,88.1665
1295773711631,88.2252
1295773771631,88.3506
1295773831631,88.3351
1295773891631,88.0979
1295773951631,88.2837
1295774011631,88.4764
1295774071631,88.4546
1295774131631,88.2653
1295774191631,88.2088
1295774251631,88.3724
1295774311631,88.4432
1295774371631,88.3243
1295774431631,88.3991
1295774491631,88.4964
1295774551631,88.3394
1295774611631,88.3607
1295774671631,88.2940
1295774731631,88.1390
1295774791631,88.1666
1295774851631,87.8983
1295774911631,88.1464
1295774971631,88.1135
1295775031631,88.0264
1295775091631,88.1829
1295775151631,87.8977
1295775211631,88.1327
1295775271631,87.9900
1295775331631,88.2705
1295775391631,87.9882
1295775451631,87.9782
1295775511631,87.9089
1295775571631,87.7601
1295775631631,87.9836
1295775691631,87.9908
1295775751631,87.8123
1295775811631,87.9647
1295775871631,88.0041
1295775931631,87.7634
1295775991631,87.7724
1295776051631,88.0337
1295776111631,87.8927
1295776171631,87.9778
1295776231631,87.7609
1295776291631,87.6864
1295776351631,87.9621
1295776411631,87.9566
1295776471631,87.7863
1295776531631,88.0028
1295776591631,87.7740
1295776651631,87.9916
1295776711631,88.0234
1295776771631,87.9315
1295776831643,87.9429
1295776891643,87.9794
1295776951643,87.9249
1295777011643,87.9920
1295777071643,87.8251
1295777131643,88.1317
1295777191643,87.9187
1295777251643,87.8822
1295777311643,88.0726
1295777371643,87.8663
1295777431643,87.9463
1295777491643,87.9878
1295777551643,87.8828
1295777611643,87.9594
1295777671643,87.9018
1295777731643,88.0111
1295777791643,87.8521
1295777851643,87.8944
1295777911643,87.8265
1295777971643,87.9252
1295778031643,87.9795
1295778091643,87.9530
1295778151643,87.7091
1295778211643,87.6911
1295778271643,87.7294
1295778331643,88.0267
1295778391643,87.7627
1295778451643,87.8507
1295778511643,88.0721
1295778571643,87.7717
1295778631643,87.7768
1295778691643,87.6502
1295778751643,87.8062
1295778811643,87.6990
1295778871643,87.7972
1295778931643,87.5931
1295778991643,87.9569
1295779051643,87.9334
1295779111643,87.7297
1295779171643,87.8369
1295779231643,87.9720
1295779291643,87.8880
1295779351643,87.8319
1295779411643,87.6690
1295779471643,87.7068
1295779531643,87.7771
1295779591643,87.7333
1295779651643,87.7356
1295779711643,87.5978
1295779771643,87.8167
1295779831643,87.7951
1295779891643,87.6806
1295779951643,87.7542
1295780011643,87.6350
1295780071643,87.6442
1295780131643,87.5633
1295780191643,87.7232
1295780251643,87.7879
1295780311643,87.6881
1295780371643,87.7532
1295780431655,87.8358
1295780491655,87.7928
1295780551655,87.8047
1295780611655,87.5641
1295780671655,87.7754
1295780731655,87.7049
1295780791655,87.6187
1295780851655,88.3323
1295780911655,87.6719
1295780971655,87.6897
1295781031655,87.6344
1295781091655,87.6730
1295781151655,87.9047
1295781211655,87.7113
1295781271655,87.8062
1295781331655,87.5646
1295781391655,87.7612
1295781451655,87.7341
1295781511655,87.7066
1295781571655,87.9265
1295781631655,87.7283
1295781691655,87.7274
1295781751655,87.8088
1295781811655,87.8636
1295781871655,87.9829
1295781931655,87.9448
1295781991655,87.8908
1295782051655,87.9093
1295782111655,87.8344
1295782171655,87.7709
1295782231655,87.8843
1295782291655,87.5735
1295782351655,87.6644
1295782411655,87.8246
1295782471655,87.8616
1295782531655,87.6246
1295782591655,87.8201
1295782651655,87.4082
1295782711655,87.7616
1295782771655,87.6659
1295782831655,87.5005
1295782891655,87.5820
1295782951655,87.6501
1295783011655,87.7140
1295783071655,87.6969
1295783131655,87.6617
1295783191655,87.6840
1295783251655,87.7535
1295783311655,87.6668
1295783371655,87.8417
1295783431655,87.6060
1295783491655,87.7130
1295783551655,87.7207
1295783611655,87.8127
1295783671655,87.6611
1295783731655,87.7292
1295783791655,87.7728
1295783851655,87.7603
1295783911655,87.7319
1295783971655,87.7300
1295784031667,87.7269
1295784091667,87.7619
1295784151667,87.9499
1295784211667,87.9464
1295784271667,87.7098
1295784331667,87.6866
1295784391667,87.7279
1295784451667,87.5439
1295784511667,87.6994
1295784571667,87.6975
1295784631667,87.7010
1295784691667,87.5400
1295784751667,87.7313
1295784811667,87.7215
1295784871667,87.8466
1295784931667,87.6303
1295784991667,87.8169
1295785051667,87.6722
1295785111667,87.8439
1295785171667,87.8166
1295785231667,87.6018
1295785291667,87.7121
1295785351667,87.6305
1295785411667,87.5062
1295785471667,87.8095
1295785531667,87.8352
1295785591667,87.7430
1295785651667,87.5985
1295785711667,87.6362
1295785771667,87.5377
1295785831667,87.8112
1295785891667,87.5121
1295785951667,87.7094
1295786011667,87.6105
1295786071667,87.6816
1295786131667,87.7763
1295786191667,87.7325
1295786251667,87.5620
1295786311667,87.7537
1295786371667,87.6257
1295786431667,87.8833
1295786491667,87.8668
1295786551667,87.8630
1295786611667,87.8251
1295786671667,87.8325
1295786731667,87.8584
1295786791667,87.8077
1295786851667,87.8298
1295786911667,87.9493
1295786971667,87.8272
1295787031667,87.6434
1295787091667,87.9632
1295787151667,87.7052
1295787211667,87.8018
1295787271667,87.8373
1295787331667,87.6478
1295787391667,87.8635
1295787451667,87.6813
1295787511667,87.7454
1295787571667,87.8191
1295787631679,87.6458
1295787691679,87.4665
1295787751679,87.3028
1295787811679,87.7011
1295787871679,87.6179
1295787931679,87.6934
1295787991679,87.6033
1295788051679,87.5555
1295788111679,87.4407
1295788171679,87.4491
1295788231679,87.7396
1295788291679,87.6697
1295788351679,87.7782
1295788411679,87.3756
1295788471679,87.7435
1295788531679,87.6988
1295788591679,87.7754
1295788651679,87.3399
1295788711679,87.3492
1295788771679,87.5054
1295788831679,87.5957
1295788891679,87.9185
1295788951679,87.5860
1295789011679,87.8625
1295790151679,87.6455
1295790211679,84.7521
1295790271679,87.1980
1295790331679,87.5628
1295790391679,87.4549
1295790451679,87.4743
1295790511679,87.6122
1295790571679,87.6891
1295790631679,87.5618
1295790691679,87.3537
1295790751679,87.5748
1295790811679,87.6472
1295790871679,87.4305
1295790931679,87.3495
1295790991679,87.6986
1295791051679,87.2409
1295791111679,87.3041
1295791171679,87.5460
1295791231691,87.4143
1295791291691,87.3654
1295791351691,87.3749
1295791411691,87.6045
1295791471691,87.5350
1295791531691,87.5194
1295791591691,87.5055
1295791651691,87.3333
1295791711691,87.4356
1295791771691,87.4029
1295791831691,87.6560
1295791891691,87.4275
1295791951691,87.3989
1295792011691,87.3937
1295792071691,87.3737
1295792131691,87.3394
1295792191691,87.2810
1295792251691,87.3914
1295792311691,87.6027
1295792371691,87.4676
1295792431691,87.3458
1295792491691,87.4487
1295792551691,87.3729
1295792611691,87.6026
1295792671691,87.5331
1295792731691,87.3388
1295792791691,87.4464
1295792851691,87.4560
1295792911691,87.4013
1295792971691,87.7183
1295793031691,87.4088
1295793091691,87.6107
1295793151691,87.4338
1295793211691,87.6260
1295793271691,87.4883
1295793331691,87.3893
1295793391691,87.6342
1295793451691,87.3093
1295793511691,87.5312
1295793571691,87.6051
1295793631691,87.3950
1295793691691,87.5602
1295793751691,87.4023
1295793811691,87.3263
1295793871691,87.6196
1295793931691,87.4139
1295793991691,87.3938
1295794051691,87.2504
1295794111691,87.5171
1295794171691,87.5908
1295794231691,87.4845
1295794291691,87.5492
1295794351691,87.5081
1295794411691,87.4633
1295794471691,87.5289
1295794531691,87.5008
1295794591691,87.3061
1295794651691,87.5077
1295794711691,87.2992
1295794771691,87.4066
1295794831703,87.3837
1295794891703,87.5361
1295794951703,87.5715
1295795011703,87.4025
1295795071703,87.6267
1295795131703,87.7174
1295795191703,87.6664
1295795251703,87.3032
1295795311703,87.6186
1295795371703,87.4165
1295795431703,89.4002
1295795491703,87.5171
1295795551703,87.4774
1295795611703,87.4881
1295795671703,87.6314
1295795731703,87.3321
1295795791703,87.5129
1295795851703,87.6532
1295795911703,87.4195
1295795971703,87.4473
1295796031703,87.5261
1295796091703,87.2913
1295796151703,87.3032
1295796211703,87.2985
1295796271703,87.4673
1295796331703,87.4711
1295796391703,87.3922
1295796451703,87.2777
1295796511703,87.3994
1295796571703,87.1699
1295796631703,87.3982
1295796691703,87.2818
1295796751703,87.3416
1295796811703,87.3863
1295796871703,87.4128
1295796931703,87.3936
1295796991703,87.1277
1295797051703,87.4530
1295797111703,87.3196
1295797171703,87.1913
1295797231703,87.5079
1295797291703,87.3373
1295797351703,87.2335
1295797411703,87.3733
1295797471703,87.4623
1295797531703,87.3924
1295797591703,87.4801
1295797651703,87.6002
1295797711703,87.6999
1295797771703,87.4599
1295797831703,87.5117
1295797891703,87.3368
1295797951703,87.4297
1295798011703,87.4282
1295798071703,87.4801
1295798131703,87.4260
1295798191703,87.5286
1295798251703,87.3799
1295798311703,87.3975
1295798371703,87.3879
1295798431714,87.3342
1295798491714,87.4055
1295798551714,87.5356
1295798611714,87.4241
1295798671714,87.5213
1295798731714,87.4100
1295798791714,87.6532
1295798851714,87.4245
1295798911714,87.4178
1295798971714,87.2490
1295799031714,87.3822
1295799091714,87.3509
1295799151714,87.4470
1295799211714,87.3535
1295799271714,87.2177
1295799331714,87.4485
1295799391714,87.1657
1295799451714,87.2145
1295799511714,87.4928
1295799571714,87.4341
1295799631714,87.4515
1295799691714,87.4772
1295799751714,87.4193
1295799811714,87.3070
1295799871714,87.4174
1295799931714,87.2526
1295799991714,87.3554
1295800051714,87.5810
1295800111714,87.5191
1295800171714,87.4523
1295800231714,87.3387
1295800291714,87.4350
1295800351714,87.3175
1295800411714,87.2894
1295800471714,87.3299
1295800531714,87.3789
1295800591714,87.2652
1295800651714,87.3703
1295800711714,87.4479
1295800771714,87.4442
1295800831714,87.0735
1295800891714,87.4587
1295800951714,87.3001
1295801011714,87.2040
1295801071714,87.2686
1295801131714,87.3371
1295801191714,87.1699
1295801251714,87.1740
1295801311714,87.2446
1295801371714,87.2627
1295801431714,87.4397
1295801491714,87.0294
1295801551714,87.3416
1295801611714,87.3905
1295801671714,87.1784
1295801731714,87.2186
1295801791714,87.3341
1295801851714,87.0495
1295801911714,87.1794
1295801971714,87.2764
1295802031726,87.2219
1295802091726,87.1429
1295802151726,87.1873
1295802211726,87.0953
1295802271726,87.3193
1295802331726,87.2619
1295802391726,87.0433
1295802451726,87.1867
1295802511726,86.9034
1295802571726,87.0395
1295802631726,87.1246
1295802691726,87.2209
1295802751726,87.1341
1295802811726,87.0113
1295802871726,87.2010
1295802931726,87.2194
1295802991726,87.2517
1295803051726,87.3376
1295803111726,87.0856
1295803171726,87.2270
1295803231726,87.2109
1295803291726,87.1414
1295803351726,87.1291
1295803411726,87.1448
1295803471726,87.2033
1295803531726,86.9555
1295803591726,86.9986
1295803651726,87.2242
1295803711726,86.9714
1295803771726,86.7003
1295803831726,86.8930
1295803891726,86.9963
1295803951726,86.9759
1295804011726,86.8379
1295804071726,87.1237
1295804131726,87.2694
1295804191726,87.0633
1295804251726,87.1118
1295804311726,87.2256
1295804371726,87.0449
1295804431726,86.9381
1295804491726,87.1149
1295804551726,86.9154
1295804611726,86.8035
1295804671726,86.8538
1295804731726,86.9679
1295804791726,86.9414
1295804851726,86.8921
1295804911726,86.9572
1295804971726,87.2690
1295805031726,86.9951
1295805091726,87.0225
1295805151726,87.0565
1295805211726,87.0993
1295805271726,87.0709
1295805331726,87.0209
1295805391726,87.1258
1295805451726,86.9807
1295805511726,86.9388
1295805571726,86.8932
1295805631738,86.9006
1295805691738,86.9567
1295805751738,86.9822
1295805811738,87.1928
1295805871738,86.8827
1295805931738,86.8075
1295805991738,87.1430
1295806051738,86.8762
1295806111738,87.0125
1295806171738,86.9330
1295806231738,86.8299
1295806291738,86.9871
1295806351738,87.1061
1295806411738,87.0443
1295806471738,86.7136
1295806531738,86.8747
1295806591738,87.0040
1295806651738,87.0189
1295806711738,86.7677
1295806771738,86.9159
1295806831738,86.8228
1295806891738,86.8644
1295806951738,87.0721
1295807011738,86.9095
1295807071738,86.9674
1295807131738,86.8900
1295807191738,86.9267
1295807251738,86.8437